Location: Burbank
(38.7788°N, 114.0429°W)
Time: 23:29:45
(UTC+00:00)

S-56A Canister/Altair - Pass Details

Date: 12 May 2026
Orbit: 633 x 2484 km, 38.9° (Epoch: 1 June)

Event Time Altitude Azimuth Distance (km) Brightness Sun altitude
Rises 08:06:00 0° 278° (W) 3,058 - -32.5°
Reaches altitude 10° 08:08:05 10° 277° (W) 2,243 - -32.4°
Maximum altitude 08:13:13 83° 190° (S) 915 - -32.3°
Exits shadow 08:17:53 22° 105° (ESE) 2,179 9.7 -32.1°
Drops below altitude 10° 08:20:38 10° 104° (ESE) 3,192 10.7 -31.9°
Sets 08:24:07 0° 104° (ESE) 4,464 11.5 -31.8°
